Regional Weather Roundup
Issued by NWS

Home | Current Version | Previous Version | Text Only | Print | Product List | Glossary On
Versions: 1 2 3 4 5 6 7 8 9 10 11 12 13 14 15 16 17 18 19 20 21 22 23 24 25 26 27 28 29 30 31 32 33 34 35 36 37 38 39 40 41 42 43 44 45 46 47 48 49 50
000
ASUS44 KLIX 220710
RWRLA
LOUISIANA WEATHER ROUNDUP
NATIONAL WEATHER SERVICE NEW ORLEANS LA
200 AM CDT MON SEP 22 2014

NOTE: "FAIR" INDICATES FEW OR NO CLOUDS BELOW 12,000 FEET WITH NO
      SIGNIFICANT WEATHER AND/OR OBSTRUCTIONS TO VISIBILITY.
      SKY/WX - SKY CONDITION AND SIGNIFICANT WEATHER.
      TMP - AIR TEMPERATURE.    DP   - DEWPOINT TEMPERATURE.
      RH  - RELATIVE HUMIDITY.  PRES - PRESSURE.
      HX  - HEAT INDEX.         WCI  - WIND CHILL INDEX.

*  THESE STATIONS ARE NOT NWS OR FAA STATIONS AND ARE NOT UNDER
   NWS QUALITY CONTROL.

LAZ040-048-061>063-065-066-069-220800-
SOUTHEAST LOUISIANA

CITY           SKY/WX    TMP DP  RH WIND       PRES   REMARKS
N.O. AUDUBON     N/A     75  73  92 MISG        N/A
N.O. INTL ARPT PTCLDY    74  68  81 CALM      30.01S
N.O. LAKEFRONT CLEAR     78  70  76 CALM      30.01S
N.O. DOWNTOWN* FAIR      79  66  65 CALM      30.01S
SLIDELL        CLEAR     68  65  90 CALM      30.01S
BATON ROUGE    CLEAR     70  67  90 CALM      30.01F
BOOTHVILLE     CLEAR     80  73  79 NE3       29.99F
BELLE CHASSE   CLEAR     71  67  87 CALM      30.00S
BOGALUSA*      FAIR      68  65  89 CALM      30.03F
GALLIANO*      NOT AVBL
NEW ROADS*     FAIR      70  69  96 CALM      30.02S
GONZALES*      FAIR      68  68 100 CALM      30.01F
HAMMOND*       CLEAR     70  66  88 CALM      30.03F
HOUMA*         CLEAR     70  65  86 CALM      30.00F HAZE
PORT FOURCHON* SUNNY     81  73  78 NE7       30.02F

$$

LAZ041-044-053-054-220800-
SOUTHWEST LOUISIANA

CITY           SKY/WX    TMP DP  RH WIND       PRES   REMARKS
LAKE CHARLES   CLEAR     72  70  93 CALM      30.02S
LAFAYETTE      CLEAR     73  72  96 CALM      30.02S
PATTERSON      CLEAR     70  70 100 CALM      30.04S
SALT POINT       N/A     75  71  87 CALM      30.01S
NEW IBERIA     CLEAR     71  69  93 CALM      30.03S
CHENAULT AIRPK CLEAR     72  71  96 CALM      30.02S

$$

LAZ027-028-220800-
CENTRAL LOUISIANA

CITY           SKY/WX    TMP DP  RH WIND       PRES   REMARKS
FORT POLK      CLEAR     71  70  96 CALM      30.04R
ALEXANDRIA INT CLEAR     71  68  90 CALM      30.01S
ALEXANDRIA     CLEAR     71  69  93 CALM      30.03S

$$

LAZ001-002-220800-
NORTHWEST LOUISIANA

CITY           SKY/WX    TMP DP  RH WIND       PRES   REMARKS
SHREVEPORT     MOCLDY    78  70  76 NE7       30.06R
BARKSDALE AFB  CLOUDY    76  70  82 VRB2      30.07R
DTN SHREVEPORT CLOUDY    78  71  79 N5        30.07R

$$

LAZ014-016-220800-
NORTHEAST LOUISIANA

CITY           SKY/WX    TMP DP  RH WIND       PRES   REMARKS
MONROE         PTCLDY    77  70  79 N10       30.05S
TALLULAH       CLEAR     76  69  79 N5        30.03S

$$



USA.gov is the U.S. government's official web portal to all federal, state and local government web resources and services.